Weather History for El Paso, TX

Change the Weather History Date:

Wednesday, December 12, 2012

  Actual Average Record
Temperature  
Mean Temperature 40 °F 45 °F  
Max Temperature 60 °F 57 °F 77 °F (1906)
Min Temperature 20 °F 33 °F 8 °F (1989)
Degree Days  
Heating Degree Days 25 20  
Month to date heating degree days 156 228  
Since 1 July heating degree days 416 670  
Cooling Degree Days 0 0  
Month to date cooling degree days 0 0  
Year to date cooling degree days 2876 2331  
Moisture  
Dew Point 7 °F    
Average Humidity 29    
Maximum Humidity 43    
Minimum Humidity 14    
Precipitation  
Precipitation 0.00 in 0.03 in 0.40 in (1892)
Month to date precipitation 0.00 0.31  
Year to date precipitation 5.95 9.24  
Snow  
Snow 0.00 in - - ()
Month to date snowfall 0.0  
Since 1 July snowfall 0.0  
Snow Depth 0.00 in    
Sea Level Pressure  
Sea Level Pressure 30.07 in    
Wind  
Wind Speed 3 mph (SE)    
Max Wind Speed 8 mph    
Max Gust Speed 12 mph    
Visibility 10 miles    
Events      
T = Trace of Precipitation, MM = Missing Value Source: NWS Daily Summary

Daily Weather History Graph

Daily Weather History Graph

Search for Another Location

Airport:

Trip Planner

Search our weather history database for the weather conditions in past years. The results will help you decide how hot, cold, wet, or windy it might be!

Date:

Astronomy

Dec. 12, 2012 Rise Set
Actual Time 6:56 AM MST 5:02 PM MST
Civil Twilight 6:29 AM MST 5:29 PM MST
Nautical Twilight 5:59 AM MST 5:59 PM MST
Astronomical Twilight 5:29 AM MST 6:29 PM MST
Moon 6:05 AM MST (12/12) 4:41 PM MST (12/12)
Length of Visible Light 10h 59m
Length of Day
10h 06m
Waning Crescent, 0% of the Moon is Illuminated
Dec 12
Waning Crescent
Dec 13
New
Dec 19
First Quarter
Dec 28
Full
Jan 4
Last Quarter

Hourly Weather History & Observations

Time (MST) Temp. Windchill Dew Point Humidity Pressure Visibility Wind Dir Wind Speed Gust Speed Precip Events Conditions
12:51 AM 32.0 °F - 5.0 °F 32% 30.08 in 10.0 mi Calm Calm - N/A   Clear
1:51 AM 34.0 °F - 5.0 °F 30% 30.08 in 10.0 mi Calm Calm - N/A   Clear
2:51 AM 27.0 °F 23.0 °F 1.0 °F 33% 30.09 in 10.0 mi ENE 3.5 mph - N/A   Clear
3:51 AM 30.0 °F - 3.0 °F 32% 30.07 in 10.0 mi Calm Calm - N/A   Clear
4:51 AM 23.0 °F 18.4 °F -0.0 °F 37% 30.10 in 10.0 mi East 3.5 mph - N/A   Clear
5:51 AM 24.1 °F 19.7 °F -0.0 °F 35% 30.12 in 10.0 mi East 3.5 mph - N/A   Clear
6:51 AM 19.9 °F 13.4 °F -0.9 °F 40% 30.16 in 10.0 mi East 4.6 mph - N/A   Clear
7:51 AM 30.0 °F - 1.0 °F 29% 30.15 in 10.0 mi Calm Calm - N/A   Clear
8:51 AM 37.9 °F - 3.0 °F 23% 30.15 in 10.0 mi Calm Calm - N/A   Clear
9:51 AM 42.1 °F 40.2 °F 5.0 °F 22% 30.14 in 10.0 mi SSW 3.5 mph - N/A   Clear
10:51 AM 46.9 °F - 6.1 °F 19% 30.13 in 10.0 mi SSE 5.8 mph - N/A   Clear
11:51 AM 51.1 °F - 7.0 °F 17% 30.07 in 10.0 mi South 4.6 mph - N/A   Clear
12:51 PM 55.0 °F - 8.1 °F 15% 30.03 in 10.0 mi Variable 5.8 mph - N/A   Clear
1:51 PM 57.0 °F - 9.0 °F 15% 30.00 in 10.0 mi South 4.6 mph - N/A   Clear
2:51 PM 59.0 °F - 10.0 °F 14% 30.00 in 10.0 mi SSE 4.6 mph - N/A   Clear
3:51 PM 60.1 °F - 10.9 °F 14% 29.99 in 10.0 mi SW 3.5 mph - N/A   Clear
4:51 PM 57.9 °F - 12.9 °F 17% 30.01 in 10.0 mi Calm Calm - N/A   Clear
5:51 PM 55.9 °F - 12.9 °F 18% 30.03 in 10.0 mi Calm Calm - N/A   Clear
6:51 PM 51.8 °F - 12.2 °F 21% 30.08 in 10.0 mi Calm Calm - N/A   Clear
7:51 PM 45.0 °F 41.2 °F 10.9 °F 25% 30.06 in 10.0 mi ESE 6.9 mph - N/A   Clear
8:51 PM 44.6 °F - 10.4 °F 25% 30.09 in 10.0 mi Calm Calm - N/A   Clear
9:51 PM 42.1 °F - 10.0 °F 27% 30.05 in 10.0 mi Calm Calm - N/A   Clear
10:51 PM 41.0 °F 39.0 °F 10.9 °F 29% 30.04 in 10.0 mi ESE 3.5 mph - N/A   Clear
11:51 PM 41.0 °F 38.0 °F 12.0 °F 31% 30.03 in 10.0 mi South 4.6 mph - N/A   Clear